{"data":{"norad_id":56155,"epoch":"2026-05-24T11:57:47.801952Z","epoch_age_seconds":115404,"freshness":"FRESH","line1":"1 56155U 23047C   26144.49846993  .00001168  00000+0  67370-4 0  9999","line2":"2 56155  97.5017 331.9849 0001645 118.2524 241.8874 15.14305980174214","mean_motion":15.1430598,"eccentricity":0.0001645,"inclination_deg":97.5017,"raan_deg":331.9849,"arg_perigee_deg":118.2524,"mean_anomaly_deg":241.8874,"bstar":6.737e-5,"rev_number":17421,"period_min":95.093066990332,"perigee_km":521.95109880131,"apogee_km":524.22160128347,"semimajor_km":6901.2233500424,"source":"CELESTRAK","updated_at":"2026-05-25T13:37:59.365674Z"}}